Time,TemperatureF,DewpointF,PressureIn,WindDirection,WindDirectionDegrees,WindSpeedMPH,WindSpeedGustMPH,Humidity,HourlyPrecipIn,Conditions,Clouds,dailyrainin,SoftwareType,DateUTC
2013-01-20 00:04:00,46.3,31.8,30.13,North,0,0.0,0.0,57,0.00,,,0.00,WUHU216HW,2013-01-20 06:04:00,
2013-01-20 00:09:00,46.1,31.6,30.13,North,0,0.0,0.0,57,0.00,,,0.00,WUHU216HW,2013-01-20 06:09:00,
2013-01-20 00:14:00,45.9,31.5,30.14,North,0,0.0,0.0,57,0.00,,,0.00,WUHU216HW,2013-01-20 06:14:00,
2013-01-20 00:19:00,45.7,31.3,30.14,North,0,0.0,0.0,57,0.00,,,0.00,WUHU216HW,2013-01-20 06:19:00,
2013-01-20 00:24:00,45.7,31.3,30.14,North,0,0.0,0.0,57,0.00,,,0.00,WUHU216HW,2013-01-20 06:24:00,
2013-01-20 00:29:00,45.7,30.4,30.15,North,0,0.0,0.0,55,0.00,,,0.00,WUHU216HW,2013-01-20 06:29:00,
2013-01-20 00:34:00,45.9,30.6,30.15,North,0,0.0,0.0,55,0.00,,,0.00,WUHU216HW,2013-01-20 06:34:00,
2013-01-20 00:39:00,45.7,30.4,30.15,North,0,0.0,0.0,55,0.00,,,0.00,WUHU216HW,2013-01-20 06:39:00,
2013-01-20 00:44:00,45.7,30.0,30.16,North,0,0.0,0.0,54,0.00,,,0.00,WUHU216HW,2013-01-20 06:44:00,
2013-01-20 00:49:00,45.4,30.1,30.16,North,0,0.0,0.0,55,0.00,,,0.00,WUHU216HW,2013-01-20 06:49:00,
2013-01-20 00:54:00,45.0,29.8,30.16,North,0,0.0,0.0,55,0.00,,,0.00,WUHU216HW,2013-01-20 06:54:00,
2013-01-20 00:59:00,44.8,29.6,30.16,North,0,0.0,0.0,55,0.00,,,0.00,WUHU216HW,2013-01-20 06:59:00,
2013-01-20 01:04:00,44.6,29.4,30.16,North,0,0.0,0.0,55,0.00,,,0.00,WUHU216HW,2013-01-20 07:04:00,
2013-01-20 01:09:00,44.5,29.3,30.17,North,0,0.0,0.0,55,0.00,,,0.00,WUHU216HW,2013-01-20 07:09:00,
2013-01-20 01:14:00,44.1,28.9,30.17,North,0,0.0,0.0,55,0.00,,,0.00,WUHU216HW,2013-01-20 07:14:00,
2013-01-20 01:19:00,43.6,28.8,30.17,North,0,0.0,0.0,56,0.00,,,0.00,WUHU216HW,2013-01-20 07:19:00,
2013-01-20 01:24:00,43.4,29.1,30.17,North,0,0.0,0.0,57,0.00,,,0.00,WUHU216HW,2013-01-20 07:24:00,
2013-01-20 01:29:00,43.2,28.9,30.18,North,0,0.0,0.0,57,0.00,,,0.00,WUHU216HW,2013-01-20 07:29:00,
2013-01-20 01:34:00,42.8,29.0,30.18,North,0,0.0,0.0,58,0.00,,,0.00,WUHU216HW,2013-01-20 07:34:00,
2013-01-20 01:39:00,42.8,29.0,30.18,North,0,0.0,0.0,58,0.00,,,0.00,WUHU216HW,2013-01-20 07:39:00,
2013-01-20 01:44:00,42.7,29.3,30.18,North,0,0.0,0.0,59,0.00,,,0.00,WUHU216HW,2013-01-20 07:44:00,
2013-01-20 01:49:00,42.5,28.7,30.18,North,0,0.0,0.0,58,0.00,,,0.00,WUHU216HW,2013-01-20 07:49:00,
2013-01-20 01:54:00,42.3,29.4,30.19,North,0,0.0,0.0,60,0.00,,,0.00,WUHU216HW,2013-01-20 07:54:00,
2013-01-20 01:59:00,42.1,28.8,30.19,North,0,0.0,0.0,59,0.00,,,0.00,WUHU216HW,2013-01-20 07:59:00,
2013-01-20 02:04:00,41.8,28.9,30.20,North,0,0.0,0.0,60,0.00,,,0.00,WUHU216HW,2013-01-20 08:04:00,
2013-01-20 02:09:00,41.6,28.7,30.20,North,0,0.0,0.0,60,0.00,,,0.00,WUHU216HW,2013-01-20 08:09:00,
2013-01-20 02:14:00,41.0,28.6,30.20,North,0,0.0,0.0,61,0.00,,,0.00,WUHU216HW,2013-01-20 08:14:00,
2013-01-20 02:19:00,41.0,29.0,30.20,North,0,0.0,0.0,62,0.00,,,0.00,WUHU216HW,2013-01-20 08:19:00,
2013-01-20 02:24:00,40.7,28.6,30.20,North,0,0.0,0.0,62,0.00,,,0.00,WUHU216HW,2013-01-20 08:24:00,
2013-01-20 02:29:00,40.7,28.6,30.20,North,0,0.0,0.0,62,0.00,,,0.00,WUHU216HW,2013-01-20 08:29:00,
2013-01-20 02:34:00,40.7,28.3,30.21,North,0,0.0,0.0,61,0.00,,,0.00,WUHU216HW,2013-01-20 08:34:00,
2013-01-20 02:39:00,40.7,27.9,30.21,North,0,0.0,0.0,60,0.00,,,0.00,WUHU216HW,2013-01-20 08:39:00,
2013-01-20 02:44:00,40.5,27.7,30.21,North,0,0.0,0.0,60,0.00,,,0.00,WUHU216HW,2013-01-20 08:44:00,
2013-01-20 02:49:00,40.3,26.6,30.21,North,0,0.0,0.0,58,0.00,,,0.00,WUHU216HW,2013-01-20 08:49:00,
2013-01-20 02:54:00,40.1,26.5,30.21,North,0,0.0,0.0,58,0.00,,,0.00,WUHU216HW,2013-01-20 08:54:00,
2013-01-20 02:59:00,39.8,26.1,30.21,North,0,0.0,0.0,58,0.00,,,0.00,WUHU216HW,2013-01-20 08:59:00,
2013-01-20 03:04:00,39.8,25.7,30.21,North,0,0.0,0.0,57,0.00,,,0.00,WUHU216HW,2013-01-20 09:04:00,
2013-01-20 03:09:00,39.6,25.1,30.22,North,0,0.0,0.0,56,0.00,,,0.00,WUHU216HW,2013-01-20 09:09:00,
2013-01-20 03:14:00,39.2,24.8,30.22,North,0,0.0,0.0,56,0.00,,,0.00,WUHU216HW,2013-01-20 09:14:00,
2013-01-20 03:19:00,39.2,24.8,30.22,North,0,0.0,0.0,56,0.00,,,0.00,WUHU216HW,2013-01-20 09:19:00,
2013-01-20 03:24:00,39.1,24.1,30.22,North,0,0.0,0.0,55,0.00,,,0.00,WUHU216HW,2013-01-20 09:24:00,
2013-01-20 03:29:00,38.9,23.9,30.23,North,0,0.0,0.0,55,0.00,,,0.00,WUHU216HW,2013-01-20 09:29:00,
2013-01-20 03:34:00,38.9,23.9,30.23,North,0,0.0,0.0,55,0.00,,,0.00,WUHU216HW,2013-01-20 09:34:00,
2013-01-20 03:39:00,38.7,23.4,30.23,North,0,0.0,0.0,54,0.00,,,0.00,WUHU216HW,2013-01-20 09:39:00,
2013-01-20 03:44:00,38.7,23.4,30.23,North,0,0.0,0.0,54,0.00,,,0.00,WUHU216HW,2013-01-20 09:44:00,
2013-01-20 03:49:00,38.5,23.2,30.23,North,0,0.0,0.0,54,0.00,,,0.00,WUHU216HW,2013-01-20 09:49:00,
2013-01-20 03:54:00,38.3,23.0,30.23,North,0,0.0,0.0,54,0.00,,,0.00,WUHU216HW,2013-01-20 09:54:00,
2013-01-20 03:59:00,38.0,22.3,30.23,North,0,0.0,0.0,53,0.00,,,0.00,WUHU216HW,2013-01-20 09:59:00,
2013-01-20 04:04:00,37.8,20.4,30.23,North,0,0.0,0.0,49,0.00,,,0.00,WUHU216HW,2013-01-20 10:04:00,
2013-01-20 04:09:00,37.4,20.0,30.23,North,0,0.0,0.0,49,0.00,,,0.00,WUHU216HW,2013-01-20 10:09:00,
2013-01-20 04:14:00,37.1,19.7,30.23,North,0,0.0,0.0,49,0.00,,,0.00,WUHU216HW,2013-01-20 10:14:00,
2013-01-20 04:19:00,36.7,19.4,30.23,North,0,0.0,0.0,49,0.00,,,0.00,WUHU216HW,2013-01-20 10:19:00,
2013-01-20 04:24:00,36.5,19.2,30.23,North,0,0.0,0.0,49,0.00,,,0.00,WUHU216HW,2013-01-20 10:24:00,
2013-01-20 04:29:00,36.4,19.5,30.23,North,0,0.0,0.0,50,0.00,,,0.00,WUHU216HW,2013-01-20 10:29:00,
2013-01-20 04:34:00,36.0,19.6,30.23,North,0,0.0,0.0,51,0.00,,,0.00,WUHU216HW,2013-01-20 10:34:00,
2013-01-20 04:39:00,35.8,20.3,30.24,North,0,0.0,0.0,53,0.00,,,0.00,WUHU216HW,2013-01-20 10:39:00,
2013-01-20 04:44:00,35.6,20.2,30.24,North,0,0.0,0.0,53,0.00,,,0.00,WUHU216HW,2013-01-20 10:44:00,
2013-01-20 04:49:00,35.5,20.9,30.25,North,0,0.0,0.0,55,0.00,,,0.00,WUHU216HW,2013-01-20 10:49:00,
2013-01-20 04:54:00,35.1,22.7,30.25,North,0,0.0,0.0,60,0.00,,,0.00,WUHU216HW,2013-01-20 10:54:00,
2013-01-20 04:59:00,34.7,23.4,30.25,North,0,0.0,0.0,63,0.00,,,0.00,WUHU216HW,2013-01-20 10:59:00,
2013-01-20 05:04:00,34.2,23.9,30.26,North,0,0.0,0.0,66,0.00,,,0.00,WUHU216HW,2013-01-20 11:04:00,
2013-01-20 05:09:00,33.7,24.5,30.26,North,0,0.0,0.0,69,0.00,,,0.00,WUHU216HW,2013-01-20 11:09:00,
2013-01-20 05:14:00,33.5,24.3,30.26,North,0,0.0,0.0,69,0.00,,,0.00,WUHU216HW,2013-01-20 11:14:00,
2013-01-20 05:19:00,33.3,24.6,30.27,North,0,0.0,0.0,70,0.00,,,0.00,WUHU216HW,2013-01-20 11:19:00,
2013-01-20 05:24:00,32.9,24.2,30.27,North,0,0.0,0.0,70,0.00,,,0.00,WUHU216HW,2013-01-20 11:24:00,
2013-01-20 05:29:00,32.8,23.7,30.27,North,0,0.0,0.0,69,0.00,,,0.00,WUHU216HW,2013-01-20 11:29:00,
2013-01-20 05:34:00,32.8,24.0,30.27,North,0,0.0,0.0,70,0.00,,,0.00,WUHU216HW,2013-01-20 11:34:00,
2013-01-20 05:39:00,32.4,24.0,30.26,North,0,0.0,0.0,71,0.00,,,0.00,WUHU216HW,2013-01-20 11:39:00,
2013-01-20 05:44:00,32.4,23.4,30.27,North,0,0.0,0.0,69,0.00,,,0.00,WUHU216HW,2013-01-20 11:44:00,
2013-01-20 05:49:00,32.0,23.0,30.27,North,0,0.0,0.0,69,0.00,,,0.00,WUHU216HW,2013-01-20 11:49:00,
2013-01-20 05:54:00,31.7,22.0,30.28,North,0,0.0,0.0,67,0.00,,,0.00,WUHU216HW,2013-01-20 11:54:00,
2013-01-20 05:59:00,31.5,21.4,30.28,North,0,0.0,0.0,66,0.00,,,0.00,WUHU216HW,2013-01-20 11:59:00,
2013-01-20 06:04:00,31.3,21.2,30.29,North,0,0.0,0.0,66,0.00,,,0.00,WUHU216HW,2013-01-20 12:04:00,
2013-01-20 06:09:00,31.0,20.5,30.29,North,0,0.0,0.0,65,0.00,,,0.00,WUHU216HW,2013-01-20 12:09:00,
2013-01-20 06:14:00,30.8,19.6,30.29,North,0,0.0,0.0,63,0.00,,,0.00,WUHU216HW,2013-01-20 12:14:00,
2013-01-20 06:19:00,30.6,19.4,30.29,North,0,0.0,0.0,63,0.00,,,0.00,WUHU216HW,2013-01-20 12:19:00,
2013-01-20 06:24:00,30.6,19.1,30.28,North,0,0.0,0.0,62,0.00,,,0.00,WUHU216HW,2013-01-20 12:24:00,
2013-01-20 06:29:00,30.4,18.9,30.29,North,0,0.0,0.0,62,0.00,,,0.00,WUHU216HW,2013-01-20 12:29:00,
2013-01-20 06:34:00,30.2,19.1,30.29,North,0,0.0,0.0,63,0.00,,,0.00,WUHU216HW,2013-01-20 12:34:00,
2013-01-20 06:39:00,30.2,19.1,30.29,North,0,0.0,0.0,63,0.00,,,0.00,WUHU216HW,2013-01-20 12:39:00,
2013-01-20 06:44:00,30.1,18.9,30.29,North,0,0.0,0.0,63,0.00,,,0.00,WUHU216HW,2013-01-20 12:44:00,
2013-01-20 06:49:00,29.9,18.7,30.29,North,0,0.0,0.0,63,0.00,,,0.00,WUHU216HW,2013-01-20 12:49:00,
2013-01-20 06:54:00,29.7,18.6,30.30,North,0,0.0,0.0,63,0.00,,,0.00,WUHU216HW,2013-01-20 12:54:00,
2013-01-20 06:59:00,29.5,16.6,30.30,North,0,0.0,0.0,58,0.00,,,0.00,WUHU216HW,2013-01-20 12:59:00,
2013-01-20 07:04:00,29.2,16.2,30.30,North,0,0.0,0.0,58,0.00,,,0.00,WUHU216HW,2013-01-20 13:04:00,
2013-01-20 07:09:00,29.2,15.4,30.31,North,0,0.0,0.0,56,0.00,,,0.00,WUHU216HW,2013-01-20 13:09:00,
2013-01-20 07:14:00,29.0,15.7,30.31,North,0,0.0,0.0,57,0.00,,,0.00,WUHU216HW,2013-01-20 13:14:00,
2013-01-20 07:19:00,28.8,15.0,30.30,North,0,0.0,0.0,56,0.00,,,0.00,WUHU216HW,2013-01-20 13:19:00,
2013-01-20 07:24:00,28.8,13.8,30.30,North,0,0.0,0.0,53,0.00,,,0.00,WUHU216HW,2013-01-20 13:24:00,
2013-01-20 07:29:00,28.6,14.0,30.30,North,0,0.0,0.0,54,0.00,,,0.00,WUHU216HW,2013-01-20 13:29:00,
2013-01-20 07:34:00,28.4,13.1,30.31,North,0,0.0,0.0,52,0.00,,,0.00,WUHU216HW,2013-01-20 13:34:00,
2013-01-20 07:39:00,28.4,13.5,30.31,North,0,0.0,0.0,53,0.00,,,0.00,WUHU216HW,2013-01-20 13:39:00,
2013-01-20 07:44:00,28.4,13.9,30.31,North,0,0.0,0.0,54,0.00,,,0.00,WUHU216HW,2013-01-20 13:44:00,
2013-01-20 07:49:00,28.4,14.3,30.31,North,0,0.0,0.0,55,0.00,,,0.00,WUHU216HW,2013-01-20 13:49:00,
2013-01-20 07:54:00,28.4,13.5,30.31,North,0,0.0,0.0,53,0.00,,,0.00,WUHU216HW,2013-01-20 13:54:00,
2013-01-20 07:59:00,28.3,13.3,30.31,North,0,0.0,0.0,53,0.00,,,0.00,WUHU216HW,2013-01-20 13:59:00,
2013-01-20 08:04:00,28.4,13.5,30.31,North,0,0.0,0.0,53,0.00,,,0.00,WUHU216HW,2013-01-20 14:04:00,
2013-01-20 08:09:00,28.4,13.1,30.32,North,0,0.0,0.0,52,0.00,,,0.00,WUHU216HW,2013-01-20 14:09:00,
2013-01-20 08:14:00,28.4,13.1,30.31,North,0,0.0,0.0,52,0.00,,,0.00,WUHU216HW,2013-01-20 14:14:00,
2013-01-20 08:19:00,28.4,12.7,30.31,North,0,0.0,0.0,51,0.00,,,0.00,WUHU216HW,2013-01-20 14:19:00,
2013-01-20 08:24:00,28.4,12.2,30.32,North,0,0.0,0.0,50,0.00,,,0.00,WUHU216HW,2013-01-20 14:24:00,
2013-01-20 08:29:00,28.4,12.2,30.33,North,0,0.0,0.0,50,0.00,,,0.00,WUHU216HW,2013-01-20 14:29:00,
2013-01-20 08:34:00,28.8,12.6,30.33,North,0,0.0,0.0,50,0.00,,,0.00,WUHU216HW,2013-01-20 14:34:00,
2013-01-20 08:39:00,28.8,13.0,30.34,North,0,0.0,0.0,51,0.00,,,0.00,WUHU216HW,2013-01-20 14:39:00,
2013-01-20 08:44:00,29.2,12.9,30.34,North,0,0.0,0.0,50,0.00,,,0.00,WUHU216HW,2013-01-20 14:44:00,
2013-01-20 08:49:00,29.2,12.4,30.34,North,0,0.0,0.0,49,0.00,,,0.00,WUHU216HW,2013-01-20 14:49:00,
2013-01-20 08:54:00,29.2,12.9,30.34,North,0,0.0,0.0,50,0.00,,,0.00,WUHU216HW,2013-01-20 14:54:00,
2013-01-20 08:59:00,29.5,13.2,30.34,North,0,0.0,0.0,50,0.00,,,0.00,WUHU216HW,2013-01-20 14:59:00,
2013-01-20 09:04:00,29.9,13.1,30.34,North,0,0.0,0.0,49,0.00,,,0.00,WUHU216HW,2013-01-20 15:04:00,
2013-01-20 09:09:00,29.7,13.4,30.35,North,0,0.0,0.0,50,0.00,,,0.00,WUHU216HW,2013-01-20 15:09:00,
2013-01-20 09:14:00,30.1,13.2,30.34,North,0,0.0,0.0,49,0.00,,,0.00,WUHU216HW,2013-01-20 15:14:00,
2013-01-20 09:19:00,30.4,13.1,30.34,North,0,0.0,0.0,48,0.00,,,0.00,WUHU216HW,2013-01-20 15:19:00,
2013-01-20 09:24:00,30.6,13.1,30.34,North,0,0.0,0.0,48,0.00,,,0.00,WUHU216HW,2013-01-20 15:24:00,
2013-01-20 09:29:00,30.8,12.9,30.34,North,0,0.0,0.0,47,0.00,,,0.00,WUHU216HW,2013-01-20 15:29:00,
2013-01-20 09:34:00,31.3,13.9,30.34,North,0,0.0,0.0,48,0.00,,,0.00,WUHU216HW,2013-01-20 15:34:00,
2013-01-20 09:39:00,31.7,13.7,30.34,North,0,0.0,0.0,47,0.00,,,0.00,WUHU216HW,2013-01-20 15:39:00,
2013-01-20 09:44:00,31.7,13.1,30.34,North,0,0.0,0.0,46,0.00,,,0.00,WUHU216HW,2013-01-20 15:44:00,
2013-01-20 09:49:00,32.0,13.0,30.35,North,0,0.0,0.0,45,0.00,,,0.00,WUHU216HW,2013-01-20 15:49:00,
2013-01-20 09:54:00,32.0,13.5,30.35,North,0,0.0,0.0,46,0.00,,,0.00,WUHU216HW,2013-01-20 15:54:00,
2013-01-20 09:59:00,32.0,13.0,30.34,North,0,0.0,0.0,45,0.00,,,0.00,WUHU216HW,2013-01-20 15:59:00,
2013-01-20 10:04:00,32.6,13.0,30.35,North,0,0.0,0.0,44,0.00,,,0.00,WUHU216HW,2013-01-20 16:04:00,
2013-01-20 10:09:00,32.8,13.2,30.34,North,0,0.0,0.0,44,0.00,,,0.00,WUHU216HW,2013-01-20 16:09:00,
2013-01-20 10:14:00,32.6,12.0,30.34,North,0,0.0,0.0,42,0.00,,,0.00,WUHU216HW,2013-01-20 16:14:00,
2013-01-20 10:19:00,32.8,13.2,30.34,North,0,0.0,0.0,44,0.00,,,0.00,WUHU216HW,2013-01-20 16:19:00,
2013-01-20 10:24:00,32.8,12.6,30.34,North,0,0.0,0.0,43,0.00,,,0.00,WUHU216HW,2013-01-20 16:24:00,
2013-01-20 10:29:00,32.6,12.0,30.34,North,0,0.0,0.0,42,0.00,,,0.00,WUHU216HW,2013-01-20 16:29:00,
2013-01-20 10:34:00,32.9,12.8,30.34,North,0,0.0,0.0,43,0.00,,,0.00,WUHU216HW,2013-01-20 16:34:00,
2013-01-20 10:39:00,32.9,12.2,30.35,North,0,0.0,0.0,42,0.00,,,0.00,WUHU216HW,2013-01-20 16:39:00,
2013-01-20 10:44:00,33.1,13.4,30.35,North,0,0.0,0.0,44,0.00,,,0.00,WUHU216HW,2013-01-20 16:44:00,
2013-01-20 10:49:00,33.5,13.2,30.35,North,0,0.0,0.0,43,0.00,,,0.00,WUHU216HW,2013-01-20 16:49:00,
2013-01-20 10:54:00,33.7,13.4,30.34,North,0,0.0,0.0,43,0.00,,,0.00,WUHU216HW,2013-01-20 16:54:00,
2013-01-20 10:59:00,34.0,14.2,30.34,North,0,0.0,0.0,44,0.00,,,0.00,WUHU216HW,2013-01-20 16:59:00,
2013-01-20 11:04:00,34.2,13.4,30.35,North,0,0.0,0.0,42,0.00,,,0.00,WUHU216HW,2013-01-20 17:04:00,
2013-01-20 11:09:00,34.7,14.4,30.35,North,0,0.0,0.0,43,0.00,,,0.00,WUHU216HW,2013-01-20 17:09:00,
2013-01-20 11:14:00,34.9,14.0,30.34,North,0,0.0,0.0,42,0.00,,,0.00,WUHU216HW,2013-01-20 17:14:00,
2013-01-20 11:19:00,35.3,14.4,30.34,North,0,0.0,0.0,42,0.00,,,0.00,WUHU216HW,2013-01-20 17:19:00,
2013-01-20 11:24:00,35.1,13.2,30.34,North,0,0.0,0.0,40,0.00,,,0.00,WUHU216HW,2013-01-20 17:24:00,
2013-01-20 11:29:00,34.9,14.0,30.33,North,0,0.0,0.0,42,0.00,,,0.00,WUHU216HW,2013-01-20 17:29:00,
2013-01-20 11:34:00,35.3,14.4,30.32,North,0,0.0,0.0,42,0.00,,,0.00,WUHU216HW,2013-01-20 17:34:00,
2013-01-20 11:39:00,35.6,14.2,30.32,North,0,0.0,0.0,41,0.00,,,0.00,WUHU216HW,2013-01-20 17:39:00,
2013-01-20 11:44:00,35.5,13.5,30.31,North,0,0.0,0.0,40,0.00,,,0.00,WUHU216HW,2013-01-20 17:44:00,
2013-01-20 11:49:00,35.3,13.9,30.31,North,0,0.0,0.0,41,0.00,,,0.00,WUHU216HW,2013-01-20 17:49:00,
2013-01-20 11:54:00,35.6,13.1,30.31,North,0,0.0,0.0,39,0.00,,,0.00,WUHU216HW,2013-01-20 17:54:00,
2013-01-20 11:59:00,35.3,13.9,30.30,North,0,0.0,0.0,41,0.00,,,0.00,WUHU216HW,2013-01-20 17:59:00,
2013-01-20 12:04:00,35.6,14.2,30.29,North,0,0.0,0.0,41,0.00,,,0.00,WUHU216HW,2013-01-20 18:04:00,
2013-01-20 12:09:00,35.5,14.1,30.30,North,0,0.0,0.0,41,0.00,,,0.00,WUHU216HW,2013-01-20 18:09:00,
2013-01-20 12:14:00,35.6,14.8,30.29,North,0,0.0,0.0,42,0.00,,,0.00,WUHU216HW,2013-01-20 18:14:00,
2013-01-20 12:19:00,36.5,16.0,30.29,North,0,0.0,0.0,43,0.00,,,0.00,WUHU216HW,2013-01-20 18:19:00,
2013-01-20 12:24:00,37.3,16.2,30.28,North,0,0.0,0.0,42,0.00,,,0.00,WUHU216HW,2013-01-20 18:24:00,
2013-01-20 12:29:00,37.6,16.0,30.28,North,0,0.0,0.0,41,0.00,,,0.00,WUHU216HW,2013-01-20 18:29:00,
2013-01-20 12:34:00,37.1,14.9,30.28,North,0,0.0,0.0,40,0.00,,,0.00,WUHU216HW,2013-01-20 18:34:00,
2013-01-20 12:39:00,36.5,14.5,30.28,North,0,0.0,0.0,40,0.00,,,0.00,WUHU216HW,2013-01-20 18:39:00,
2013-01-20 12:44:00,37.1,14.9,30.28,North,0,0.0,0.0,40,0.00,,,0.00,WUHU216HW,2013-01-20 18:44:00,
2013-01-20 12:49:00,37.4,14.7,30.28,North,0,0.0,0.0,39,0.00,,,0.00,WUHU216HW,2013-01-20 18:49:00,
2013-01-20 12:54:00,37.8,15.7,30.27,North,0,0.0,0.0,40,0.00,,,0.00,WUHU216HW,2013-01-20 18:54:00,
2013-01-20 12:59:00,38.2,14.7,30.28,North,0,0.0,0.0,38,0.00,,,0.00,WUHU216HW,2013-01-20 18:59:00,
2013-01-20 13:04:00,38.0,12.5,30.29,North,0,0.0,0.0,35,0.00,,,0.00,WUHU216HW,2013-01-20 19:04:00,
2013-01-20 13:09:00,37.4,14.7,30.30,North,0,0.0,0.0,39,0.00,,,0.00,WUHU216HW,2013-01-20 19:09:00,
2013-01-20 13:14:00,38.2,15.3,30.30,North,0,0.0,0.0,39,0.00,,,0.00,WUHU216HW,2013-01-20 19:14:00,
2013-01-20 13:19:00,38.2,15.3,30.29,North,0,0.0,0.0,39,0.00,,,0.00,WUHU216HW,2013-01-20 19:19:00,
2013-01-20 13:24:00,38.3,15.5,30.30,North,0,0.0,0.0,39,0.00,,,0.00,WUHU216HW,2013-01-20 19:24:00,
2013-01-20 13:29:00,38.3,14.9,30.31,North,0,0.0,0.0,38,0.00,,,0.00,WUHU216HW,2013-01-20 19:29:00,
2013-01-20 13:34:00,37.4,14.7,30.31,North,0,0.0,0.0,39,0.00,,,0.00,WUHU216HW,2013-01-20 19:34:00,
2013-01-20 13:39:00,37.1,15.5,30.31,North,0,0.0,0.0,41,0.00,,,0.00,WUHU216HW,2013-01-20 19:39:00,
2013-01-20 13:44:00,37.1,15.5,30.30,North,0,0.0,0.0,41,0.00,,,0.00,WUHU216HW,2013-01-20 19:44:00,
2013-01-20 13:49:00,37.1,16.0,30.31,North,0,0.0,0.0,42,0.00,,,0.00,WUHU216HW,2013-01-20 19:49:00,
2013-01-20 13:54:00,37.1,16.0,30.31,North,0,0.0,0.0,42,0.00,,,0.00,WUHU216HW,2013-01-20 19:54:00,
2013-01-20 13:59:00,37.1,16.0,30.31,North,0,0.0,0.0,42,0.00,,,0.00,WUHU216HW,2013-01-20 19:59:00,
2013-01-20 14:04:00,37.3,16.8,30.30,North,0,0.0,0.0,43,0.00,,,0.00,WUHU216HW,2013-01-20 20:04:00,
2013-01-20 14:09:00,37.1,16.0,30.30,North,0,0.0,0.0,42,0.00,,,0.00,WUHU216HW,2013-01-20 20:09:00,
2013-01-20 14:14:00,36.9,15.8,30.31,North,0,0.0,0.0,42,0.00,,,0.00,WUHU216HW,2013-01-20 20:14:00,
2013-01-20 14:19:00,36.5,14.5,30.31,North,0,0.0,0.0,40,0.00,,,0.00,WUHU216HW,2013-01-20 20:19:00,
2013-01-20 14:24:00,36.5,13.9,30.31,North,0,0.0,0.0,39,0.00,,,0.00,WUHU216HW,2013-01-20 20:24:00,
2013-01-20 14:29:00,36.5,13.9,30.31,North,0,0.0,0.0,39,0.00,,,0.00,WUHU216HW,2013-01-20 20:29:00,
2013-01-20 14:34:00,36.7,14.1,30.31,North,0,0.0,0.0,39,0.00,,,0.00,WUHU216HW,2013-01-20 20:34:00,
2013-01-20 14:39:00,36.9,14.1,30.31,North,0,0.0,0.0,39,0.00,,,0.00,WUHU216HW,2013-01-20 20:39:00,
2013-01-20 14:44:00,37.1,14.3,30.30,North,0,0.0,0.0,39,0.00,,,0.00,WUHU216HW,2013-01-20 20:44:00,
2013-01-20 14:49:00,37.1,14.3,30.29,North,0,0.0,0.0,39,0.00,,,0.00,WUHU216HW,2013-01-20 20:49:00,
2013-01-20 14:54:00,36.7,13.3,30.30,North,0,0.0,0.0,38,0.00,,,0.00,WUHU216HW,2013-01-20 20:54:00,
2013-01-20 14:59:00,36.5,13.2,30.29,North,0,0.0,0.0,38,0.00,,,0.00,WUHU216HW,2013-01-20 20:59:00,
2013-01-20 15:04:00,36.7,13.3,30.29,North,0,0.0,0.0,38,0.00,,,0.00,WUHU216HW,2013-01-20 21:04:00,
2013-01-20 15:09:00,36.5,13.2,30.28,North,0,0.0,0.0,38,0.00,,,0.00,WUHU216HW,2013-01-20 21:09:00,
2013-01-20 15:14:00,36.5,13.2,30.29,North,0,0.0,0.0,38,0.00,,,0.00,WUHU216HW,2013-01-20 21:14:00,
2013-01-20 15:19:00,36.5,13.2,30.29,North,0,0.0,0.0,38,0.00,,,0.00,WUHU216HW,2013-01-20 21:19:00,
2013-01-20 15:24:00,36.0,13.3,30.29,North,0,0.0,0.0,39,0.00,,,0.00,WUHU216HW,2013-01-20 21:24:00,
2013-01-20 15:29:00,35.6,13.1,30.30,North,0,0.0,0.0,39,0.00,,,0.00,WUHU216HW,2013-01-20 21:29:00,
2013-01-20 15:34:00,35.6,13.7,30.30,North,0,0.0,0.0,40,0.00,,,0.00,WUHU216HW,2013-01-20 21:34:00,
2013-01-20 15:39:00,35.6,13.7,30.31,North,0,0.0,0.0,40,0.00,,,0.00,WUHU216HW,2013-01-20 21:39:00,
2013-01-20 15:44:00,35.5,13.5,30.31,North,0,0.0,0.0,40,0.00,,,0.00,WUHU216HW,2013-01-20 21:44:00,
2013-01-20 15:49:00,35.1,14.2,30.31,North,0,0.0,0.0,42,0.00,,,0.00,WUHU216HW,2013-01-20 21:49:00,
2013-01-20 15:54:00,34.9,13.6,30.31,North,0,0.0,0.0,41,0.00,,,0.00,WUHU216HW,2013-01-20 21:54:00,
2013-01-20 15:59:00,34.9,14.0,30.30,North,0,0.0,0.0,42,0.00,,,0.00,WUHU216HW,2013-01-20 21:59:00,
2013-01-20 16:04:00,34.6,14.8,30.30,North,0,0.0,0.0,44,0.00,,,0.00,WUHU216HW,2013-01-20 22:04:00,
2013-01-20 16:09:00,34.4,14.6,30.30,North,0,0.0,0.0,44,0.00,,,0.00,WUHU216HW,2013-01-20 22:09:00,
2013-01-20 16:14:00,34.2,14.4,30.30,North,0,0.0,0.0,44,0.00,,,0.00,WUHU216HW,2013-01-20 22:14:00,
2013-01-20 16:19:00,34.2,14.4,30.29,North,0,0.0,0.0,44,0.00,,,0.00,WUHU216HW,2013-01-20 22:19:00,
2013-01-20 16:24:00,34.2,14.4,30.29,North,0,0.0,0.0,44,0.00,,,0.00,WUHU216HW,2013-01-20 22:24:00,
2013-01-20 16:29:00,34.0,14.8,30.29,North,0,0.0,0.0,45,0.00,,,0.00,WUHU216HW,2013-01-20 22:29:00,
2013-01-20 16:34:00,34.0,14.8,30.29,North,0,0.0,0.0,45,0.00,,,0.00,WUHU216HW,2013-01-20 22:34:00,
2013-01-20 16:39:00,33.7,14.0,30.31,North,0,0.0,0.0,44,0.00,,,0.00,WUHU216HW,2013-01-20 22:39:00,
2013-01-20 16:44:00,33.7,14.4,30.30,North,0,0.0,0.0,45,0.00,,,0.00,WUHU216HW,2013-01-20 22:44:00,
2013-01-20 16:49:00,33.3,14.1,30.31,North,0,0.0,0.0,45,0.00,,,0.00,WUHU216HW,2013-01-20 22:49:00,
2013-01-20 16:54:00,33.1,14.0,30.31,North,0,0.0,0.0,45,0.00,,,0.00,WUHU216HW,2013-01-20 22:54:00,
2013-01-20 16:59:00,32.9,13.8,30.31,North,0,0.0,0.0,45,0.00,,,0.00,WUHU216HW,2013-01-20 22:59:00,
2013-01-20 17:04:00,32.6,13.4,30.31,North,0,0.0,0.0,45,0.00,,,0.00,WUHU216HW,2013-01-20 23:04:00,
2013-01-20 17:09:00,32.6,14.0,30.31,North,0,0.0,0.0,46,0.00,,,0.00,WUHU216HW,2013-01-20 23:09:00,
2013-01-20 17:14:00,32.4,13.8,30.30,North,0,0.0,0.0,46,0.00,,,0.00,WUHU216HW,2013-01-20 23:14:00,
2013-01-20 17:19:00,32.2,14.1,30.30,North,0,0.0,0.0,47,0.00,,,0.00,WUHU216HW,2013-01-20 23:19:00,
2013-01-20 17:24:00,32.0,14.0,30.31,North,0,0.0,0.0,47,0.00,,,0.00,WUHU216HW,2013-01-20 23:24:00,
2013-01-20 17:29:00,31.9,13.8,30.30,North,0,0.0,0.0,47,0.00,,,0.00,WUHU216HW,2013-01-20 23:29:00,
2013-01-20 17:34:00,31.7,14.1,30.30,North,0,0.0,0.0,48,0.00,,,0.00,WUHU216HW,2013-01-20 23:34:00,
2013-01-20 17:39:00,31.7,14.1,30.30,North,0,0.0,0.0,48,0.00,,,0.00,WUHU216HW,2013-01-20 23:39:00,
2013-01-20 17:44:00,31.7,14.1,30.30,North,0,0.0,0.0,48,0.00,,,0.00,WUHU216HW,2013-01-20 23:44:00,
2013-01-20 17:49:00,31.7,14.1,30.30,North,0,0.0,0.0,48,0.00,,,0.00,WUHU216HW,2013-01-20 23:49:00,
2013-01-20 17:54:00,31.7,14.1,30.30,North,0,0.0,0.0,48,0.00,,,0.00,WUHU216HW,2013-01-20 23:54:00,
2013-01-20 17:59:00,31.7,14.7,30.30,North,0,0.0,0.0,49,0.00,,,0.00,WUHU216HW,2013-01-20 23:59:00,
2013-01-20 18:04:00,31.3,14.9,30.30,North,0,0.0,0.0,50,0.00,,,0.00,WUHU216HW,2013-01-21 00:04:00,
2013-01-20 18:09:00,31.1,14.7,30.30,North,0,0.0,0.0,50,0.00,,,0.00,WUHU216HW,2013-01-21 00:09:00,
2013-01-20 18:14:00,31.0,14.5,30.30,North,0,0.0,0.0,50,0.00,,,0.00,WUHU216HW,2013-01-21 00:14:00,
2013-01-20 18:19:00,31.0,14.5,30.30,North,0,0.0,0.0,50,0.00,,,0.00,WUHU216HW,2013-01-21 00:19:00,
2013-01-20 18:24:00,30.8,14.8,30.30,North,0,0.0,0.0,51,0.00,,,0.00,WUHU216HW,2013-01-21 00:24:00,
2013-01-20 18:29:00,30.6,14.6,30.30,North,0,0.0,0.0,51,0.00,,,0.00,WUHU216HW,2013-01-21 00:29:00,
2013-01-20 18:34:00,30.6,14.2,30.29,North,0,0.0,0.0,50,0.00,,,0.00,WUHU216HW,2013-01-21 00:34:00,
2013-01-20 18:39:00,30.6,14.6,30.29,North,0,0.0,0.0,51,0.00,,,0.00,WUHU216HW,2013-01-21 00:39:00,
2013-01-20 18:44:00,30.6,14.6,30.29,North,0,0.0,0.0,51,0.00,,,0.00,WUHU216HW,2013-01-21 00:44:00,
2013-01-20 18:49:00,30.6,14.6,30.29,North,0,0.0,0.0,51,0.00,,,0.00,WUHU216HW,2013-01-21 00:49:00,
2013-01-20 18:54:00,30.4,14.4,30.30,North,0,0.0,0.0,51,0.00,,,0.00,WUHU216HW,2013-01-21 00:54:00,
2013-01-20 18:59:00,30.2,14.3,30.30,North,0,0.0,0.0,51,0.00,,,0.00,WUHU216HW,2013-01-21 00:59:00,
2013-01-20 19:04:00,30.4,14.4,30.29,North,0,0.0,0.0,51,0.00,,,0.00,WUHU216HW,2013-01-21 01:04:00,
2013-01-20 19:09:00,30.4,14.4,30.29,North,0,0.0,0.0,51,0.00,,,0.00,WUHU216HW,2013-01-21 01:09:00,
2013-01-20 19:14:00,30.4,14.4,30.29,North,0,0.0,0.0,51,0.00,,,0.00,WUHU216HW,2013-01-21 01:14:00,
2013-01-20 19:19:00,30.2,14.3,30.29,North,0,0.0,0.0,51,0.00,,,0.00,WUHU216HW,2013-01-21 01:19:00,
2013-01-20 19:24:00,30.2,14.3,30.30,North,0,0.0,0.0,51,0.00,,,0.00,WUHU216HW,2013-01-21 01:24:00,
2013-01-20 19:29:00,30.2,14.7,30.30,North,0,0.0,0.0,52,0.00,,,0.00,WUHU216HW,2013-01-21 01:29:00,
2013-01-20 19:34:00,30.1,14.5,30.29,North,0,0.0,0.0,52,0.00,,,0.00,WUHU216HW,2013-01-21 01:34:00,
2013-01-20 19:39:00,29.9,14.4,30.29,North,0,0.0,0.0,52,0.00,,,0.00,WUHU216HW,2013-01-21 01:39:00,
2013-01-20 19:44:00,29.7,14.2,30.30,North,0,0.0,0.0,52,0.00,,,0.00,WUHU216HW,2013-01-21 01:44:00,
2013-01-20 19:49:00,29.5,14.0,30.30,North,0,0.0,0.0,52,0.00,,,0.00,WUHU216HW,2013-01-21 01:49:00,
2013-01-20 19:54:00,29.5,14.0,30.30,North,0,0.0,0.0,52,0.00,,,0.00,WUHU216HW,2013-01-21 01:54:00,
2013-01-20 19:59:00,29.5,14.5,30.30,North,0,0.0,0.0,53,0.00,,,0.00,WUHU216HW,2013-01-21 01:59:00,
2013-01-20 20:04:00,29.3,14.7,30.31,North,0,0.0,0.0,54,0.00,,,0.00,WUHU216HW,2013-01-21 02:04:00,
2013-01-20 20:09:00,29.2,14.6,30.31,North,0,0.0,0.0,54,0.00,,,0.00,WUHU216HW,2013-01-21 02:09:00,
2013-01-20 20:14:00,29.0,15.2,30.31,North,0,0.0,0.0,56,0.00,,,0.00,WUHU216HW,2013-01-21 02:14:00,
2013-01-20 20:19:00,28.8,15.0,30.30,North,0,0.0,0.0,56,0.00,,,0.00,WUHU216HW,2013-01-21 02:19:00,
2013-01-20 20:24:00,28.6,15.3,30.30,North,0,0.0,0.0,57,0.00,,,0.00,WUHU216HW,2013-01-21 02:24:00,
2013-01-20 20:29:00,28.6,15.3,30.30,North,0,0.0,0.0,57,0.00,,,0.00,WUHU216HW,2013-01-21 02:29:00,
2013-01-20 20:34:00,28.6,15.8,30.31,North,0,0.0,0.0,58,0.00,,,0.00,WUHU216HW,2013-01-21 02:34:00,
2013-01-20 20:39:00,28.6,15.3,30.30,North,0,0.0,0.0,57,0.00,,,0.00,WUHU216HW,2013-01-21 02:39:00,
2013-01-20 20:44:00,28.6,15.3,30.30,North,0,0.0,0.0,57,0.00,,,0.00,WUHU216HW,2013-01-21 02:44:00,
2013-01-20 20:49:00,28.6,15.3,30.30,North,0,0.0,0.0,57,0.00,,,0.00,WUHU216HW,2013-01-21 02:49:00,
2013-01-20 20:54:00,28.6,15.3,30.31,North,0,0.0,0.0,57,0.00,,,0.00,WUHU216HW,2013-01-21 02:54:00,
2013-01-20 21:00:00,28.6,14.9,30.30,North,0,0.0,0.0,56,0.00,,,0.00,WUHU216HW,2013-01-21 03:00:00,
2013-01-20 21:04:00,28.6,15.8,30.31,North,0,0.0,0.0,58,0.00,,,0.00,WUHU216HW,2013-01-21 03:04:00,
2013-01-20 21:09:00,28.4,15.1,30.31,North,0,0.0,0.0,57,0.00,,,0.00,WUHU216HW,2013-01-21 03:09:00,
2013-01-20 21:14:00,28.4,15.6,30.31,North,0,0.0,0.0,58,0.00,,,0.00,WUHU216HW,2013-01-21 03:14:00,
2013-01-20 21:19:00,28.3,15.4,30.31,North,0,0.0,0.0,58,0.00,,,0.00,WUHU216HW,2013-01-21 03:19:00,
2013-01-20 21:24:00,28.3,15.4,30.31,North,0,0.0,0.0,58,0.00,,,0.00,WUHU216HW,2013-01-21 03:24:00,
2013-01-20 21:29:00,28.3,15.8,30.31,North,0,0.0,0.0,59,0.00,,,0.00,WUHU216HW,2013-01-21 03:29:00,
2013-01-20 21:34:00,28.3,15.4,30.30,North,0,0.0,0.0,58,0.00,,,0.00,WUHU216HW,2013-01-21 03:34:00,
2013-01-20 21:39:00,28.3,15.8,30.30,North,0,0.0,0.0,59,0.00,,,0.00,WUHU216HW,2013-01-21 03:39:00,
2013-01-20 21:45:00,28.1,15.6,30.30,North,0,0.0,0.0,59,0.00,,,0.00,WUHU216HW,2013-01-21 03:45:00,
2013-01-20 21:50:00,28.1,15.6,30.29,North,0,0.0,0.0,59,0.00,,,0.00,WUHU216HW,2013-01-21 03:50:00,
2013-01-20 21:55:00,28.1,15.6,30.29,North,0,0.0,0.0,59,0.00,,,0.00,WUHU216HW,2013-01-21 03:55:00,
2013-01-20 22:00:00,28.1,15.6,30.29,North,0,0.0,0.0,59,0.00,,,0.00,WUHU216HW,2013-01-21 04:00:00,
2013-01-20 22:05:00,27.9,15.4,30.29,North,0,0.0,0.0,59,0.00,,,0.00,WUHU216HW,2013-01-21 04:05:00,
2013-01-20 22:10:00,27.7,15.2,30.29,North,0,0.0,0.0,59,0.00,,,0.00,WUHU216HW,2013-01-21 04:10:00,
2013-01-20 22:15:00,27.7,15.2,30.29,North,0,0.0,0.0,59,0.00,,,0.00,WUHU216HW,2013-01-21 04:15:00,
2013-01-20 22:20:00,27.7,15.2,30.30,North,0,0.0,0.0,59,0.00,,,0.00,WUHU216HW,2013-01-21 04:20:00,
2013-01-20 22:25:00,27.7,15.2,30.30,North,0,0.0,0.0,59,0.00,,,0.00,WUHU216HW,2013-01-21 04:25:00,
2013-01-20 22:30:00,27.7,15.2,30.29,North,0,0.0,0.0,59,0.00,,,0.00,WUHU216HW,2013-01-21 04:30:00,
2013-01-20 22:35:00,27.7,15.2,30.30,North,0,0.0,0.0,59,0.00,,,0.00,WUHU216HW,2013-01-21 04:35:00,
2013-01-20 22:40:00,27.5,15.5,30.29,North,0,0.0,0.0,60,0.00,,,0.00,WUHU216HW,2013-01-21 04:40:00,
2013-01-20 22:45:00,27.5,15.5,30.29,North,0,0.0,0.0,60,0.00,,,0.00,WUHU216HW,2013-01-21 04:45:00,
2013-01-20 22:50:00,27.7,15.7,30.29,North,0,0.0,0.0,60,0.00,,,0.00,WUHU216HW,2013-01-21 04:50:00,
2013-01-20 22:55:00,27.7,15.7,30.30,North,0,0.0,0.0,60,0.00,,,0.00,WUHU216HW,2013-01-21 04:55:00,
2013-01-20 23:00:00,27.5,15.5,30.29,North,0,0.0,0.0,60,0.00,,,0.00,WUHU216HW,2013-01-21 05:00:00,
2013-01-20 23:02:00,27.5,15.5,30.30,North,0,0.0,0.0,60,0.00,,,0.00,WUHU216HW,2013-01-21 05:02:00,
2013-01-20 23:07:00,27.4,14.9,30.30,North,0,0.0,0.0,59,0.00,,,0.00,WUHU216HW,2013-01-21 05:07:00,
2013-01-20 23:12:00,27.4,14.5,30.30,North,0,0.0,0.0,58,0.00,,,0.00,WUHU216HW,2013-01-21 05:12:00,
2013-01-20 23:17:00,27.2,14.3,30.29,North,0,0.0,0.0,58,0.00,,,0.00,WUHU216HW,2013-01-21 05:17:00,
2013-01-20 23:22:00,27.2,14.7,30.29,North,0,0.0,0.0,59,0.00,,,0.00,WUHU216HW,2013-01-21 05:22:00,
2013-01-20 23:27:00,27.2,14.3,30.29,North,0,0.0,0.0,58,0.00,,,0.00,WUHU216HW,2013-01-21 05:27:00,
2013-01-20 23:32:00,27.0,13.3,30.29,North,0,0.0,0.0,56,0.00,,,0.00,WUHU216HW,2013-01-21 05:32:00,
2013-01-20 23:37:00,26.8,13.5,30.29,North,0,0.0,0.0,57,0.00,,,0.00,WUHU216HW,2013-01-21 05:37:00,
2013-01-20 23:42:00,26.6,13.3,30.29,North,0,0.0,0.0,57,0.00,,,0.00,WUHU216HW,2013-01-21 05:42:00,
2013-01-20 23:47:00,26.6,13.3,30.30,North,0,0.0,0.0,57,0.00,,,0.00,WUHU216HW,2013-01-21 05:47:00,
2013-01-20 23:52:00,26.5,14.1,30.30,North,0,0.0,0.0,59,0.00,,,0.00,WUHU216HW,2013-01-21 05:52:00,
2013-01-20 23:57:00,26.3,13.9,30.30,North,0,0.0,0.0,59,0.00,,,0.00,WUHU216HW,2013-01-21 05:57:00,